Regional Weather Roundup
Issued by NWS Wilmington, NC

Current Version | Previous Version | Text Only | Print | Product List | Glossary On
Versions: 1 2 3 4 5 6 7 8 9 10 11 12 13 14 15 16 17 18 19 20 21 22 23 24 25 26 27 28 29 30 31 32 33 34 35 36 37 38 39 40 41 42 43 44 45 46 47 48 49 50
000
ASUS42 KILM 150410
RWRILM
RWRILM
REGIONAL HOURLY WEATHER ROUNDUP
NATIONAL WEATHER SERVICE WILMINGTON NC
1200 AM EDT MON SEP 15 2014

NOTE: "FAIR" INDICATES FEW OR NO CLOUDS BELOW 12,000 FEET WITH NO
SIGNIFICANT WEATHER AND/OR OBSTRUCTIONS TO VISIBILITY.

...............WFO WILMINGTON COUNTY WARNING AREA...............

......COASTAL NC AND SC COUNTIES......

CITY           SKY/WX    TMP DP  RH WIND       PRES   REMARKS
WILMINGTON     CLOUDY    70  67  90 N5        30.19S
SOUTHPORT      CLOUDY    70  66  88 N6        30.19S
N MYRTLE BEACH CLOUDY    69  66  90 N3        30.19F
MYRTLE BEACH   CLOUDY    70  64  83 N6        30.20S

......INLAND NC AND SC COUNTIES.......

CITY           SKY/WX    TMP DP  RH WIND       PRES   REMARKS
LUMBERTON      CLOUDY    67  65  93 CALM      30.21S
ELIZABETHTOWN  CLOUDY    69  65  86 CALM      30.21S
WHITEVILLE     CLOUDY    68  65  92 CALM      30.20S
FLORENCE       CLOUDY    69  64  84 E7        30.21F
DARLINGTON     CLOUDY    68  61  77 CALM      30.23S

....................REST OF NORTH CAROLINA......................

.........EASTERN NC.........

CITY           SKY/WX    TMP DP  RH WIND       PRES   REMARKS
CAPE HATTERAS  CLOUDY    68  63  84 NE7       30.17F
JACKSONVILLE   CLOUDY    70  64  83 N3        30.20S
MOREHEAD CITY  CLEAR     69  63  81 NE3       30.18F
KENANSVILLE    NOT AVBL
NEW BERN       CLOUDY    69  61  75 NE5       30.21R
ELIZABETH CITY MOCLDY    67  57  70 N9        30.21S

.........CENTRAL NC.........

CITY           SKY/WX    TMP DP  RH WIND       PRES   REMARKS
RALEIGH DURHAM LGT RAIN  64  58  80 NE3       30.24F
ROCKY MOUNT    CLOUDY    64  59  83 N6        30.22F
ROANOKE RAPIDS NOT AVBL
FAYETTEVILLE   CLOUDY    69  65  86 N6        30.22R
HOFFMAN        NOT AVBL

.........WESTERN NC.........

CITY           SKY/WX    TMP DP  RH WIND       PRES   REMARKS
CHARLOTTE      CLOUDY    66  61  84 CALM      30.25R
GREENSBORO     CLOUDY    64  57  78 E3        30.24S
HICKORY        NOT AVBL
BOONE          NOT AVBL
ASHEVILLE      NOT AVBL

.....................REST OF SOUTH CAROLINA.....................

.........EASTERN SC.........

CITY           SKY/WX    TMP DP  RH WIND       PRES   REMARKS
CHARLESTON     MOCLDY    73  70  90 NE7       30.19F
BEAUFORT MCAS  CLOUDY    76  73  91 W7        30.18F
HILTON HEAD    NOT AVBL

.........CENTRAL SC.........

CITY           SKY/WX    TMP DP  RH WIND       PRES   REMARKS
COLUMBIA       CLOUDY    71  64  78 E5        30.21S
ORANGEBURG     CLOUDY    71  66  84 NE3       30.21S
SUMTER SHAW    PTCLDY    67  63  87 NE3       30.20F

.........WESTERN SC.........

CITY           SKY/WX    TMP DP  RH WIND       PRES   REMARKS
GREENVILLE     NOT AVBL
ROCK HILL      CLOUDY    66  63  90 CALM      30.25R
ANDERSON       CLOUDY    66  62  87 NE3       30.25S
CLEMSON        NOT AVBL
GREENWOOD      CLOUDY    67  62  84 N3        30.25S


...................COASTAL AND OFFSHORE REPORTS..................

................LOCAL PIERS AND NC RESERVE................


STATION/POSITION TIME  SKY/WX   TEMP    WIND        PRES    VSBY
                                AIR SEA DIR/SP/G
                 (UTC)          (F)     (DEG/KT/KT) (MB)    (MI)
JOHNY MRCER PIER 0400            72 83   10/  8/  9 1021.7R
NC RESRV MASNBRO 0300            71     360/  2     1022.0S
OCEAN CREST PIER 0400            70 82  340/  6/  9 1021.3R
SPRINGMAID  PIER 0400            69 82  340/  5/  5 1022.7R


................COASTAL AND OFFSHORE BUOYS................


STATION/POSITION TIME  SKY/WX   TEMP    WIND        PRES    VSBY
                                AIR SEA DIR/SP/G
                 (UTC)          (F)     (DEG/KT/KT) (MB)    (MI)
DIMNDSHOAL 41025 0400            73     360/ 14/ 17 1021.0F
WVE H/P(F/S)=  4/ 8 WND WVE H/P(F/S)=  3/ 5 SWL H/P/D(F/S/D)=  2/ 30/ 8

CAPE LOOKOUT     0300            71      20/  9/ 12 1021.9F
ONSLOW BAY 41036 0400            75 82   50/ 12/ 14 1022.1R
WVE H/P(F/S)=  3/ 4 WND WVE H/P(F/S)=  2/ 4 SWL H/P/D(F/S/D)=  2/ 80/ 6

5 WRITEBCH 41038 0300            72 82   40/ 12/ 14   N/A
MASONBORO  41110 0400               82                N/A
WVE H/P(F/S)=  3/ 5 WND WVE H/P(F/S)=  3/ 5

WILM HARBR 41108 0400               82                N/A
WVE H/P(F/S)=  3/ 6 WND WVE H/P(F/S)=  3/ 6

27WRITEBCH 41037 0300            73 83   50/ 12/ 16 1021.5F
FRYING PAN 41013 NOT AVBL
SUNST NRSH 41024 NOT AVBL
CAPRS NRSH 41029 0300            76      50/ 12/ 14   N/A
EDISTO     41004 0400            80 83  130/  2/  4 1021.1F
WVE H/P(F/S)=  3/ 6 WND WVE H/P(F/S)=  2/ 4 SWL H/P/D(F/S/D)=  3/ 6



..........OFFSHORE BUOYS BEYOND 100 NM OFFSHORE...........
.....IN A TRIANGLE---HAT TO BERMUDA TO BAHAMAS TO HAT.....


STATION/POSITION TIME  SKY/WX   TEMP    WIND        PRES    VSBY
                                AIR SEA DIR/SP/G
                 (UTC)          (F)     (DEG/KT/KT) (MB)    (MI)
150E HAT   41001 NOT AVBL
W BERMUDA  41048 0330            81 83  170/  6/  6 1021.6F
WVE H/P(F/S)=  2/ 6 SWL H/P/D(F/S/D)=  2/310/ 6

ATLANTIC S 41049 0258            83 85   50/ 12/ 14 1019.6F
WVE H/P(F/S)=  5/ 6 WND WVE H/P(F/S)=  3/ 5 SWL H/P/D(F/S/D)=  3/120/ 6

E BAHAMAS  41046 0340            83 84   70/ 14/ 16 1018.5F
WVE H/P(F/S)=  4/ 7 WND WVE H/P(F/S)=  3/ 7 SWL H/P/D(F/S/D)=  2/150/12

NE BAHAMAS 41047 0326            81 83   60/  4/  4 1021.5F
WVE H/P(F/S)=  2/ 8 SWL H/P/D(F/S/D)=  2/ 60/ 8

120E CANVRL41010 0400            83 85  150/  8/ 10 1021.6F
WVE H/P(F/S)=  2/ 4 WND WVE H/P(F/S)=  2/ 4 SWL H/P/D(F/S/D)=  2/180/ 4


END



USA.gov is the U.S. government's official web portal to all federal, state and local government web resources and services.